Погода в Кызыл-Кале

Россия / Карачаево-Черкесская Республика     43˚54′31″N   42˚00′58″E
темп.,
°C
ветер,
м/с
пор.,
м/с
влажн.,
%
обл.,
%
осадки,
мм/ч
давл.,
гПа
погр.,
м
17 января, вс
вс1700:00−5˚вюв2290100 0.0 101256
03:00−5˚всв1292100 0.0 100832
06:00−4˚св1289100 0.0 100666
09:00−3˚всв2285100 0.0 100382
12:00+1˚с2287100 0.0 1001106
15:00+1˚в118698 0.0 100085
18:00вюв2285100 0.0 100123
21:00−1˚зсз1287100 0.0 100123
18 января, пн
пн1800:00−3˚с0097100 0.0 100325
03:00−1˚зюз1198100 0.6 100449
06:00−1˚зсз1699100 5.5 1008457
09:00−4˚с2297100 8.4 1011169
12:00−5˚с2395100 0.9 1013217
15:00−4˚зюз2776100 1.3 1014669
18:00−7˚ююз2284100 0.1 101626
21:00−9˚зсз1185100 0.1 101721
19 января, вт
вт1900:00−11˚ююз1185100 0.0 101821
03:00−10˚з1196100 0.3 101951
06:00−10˚ю2389100 0.4 102035
09:00−9˚ю4475100 0.4 102166
12:00−4˚ссз33710 0.0 1019293
15:00−7˚всв238934 0.2 1018413
18:00−11˚ююв228730 0.0 102021
21:00−11˚ю236716 0.0 102221
20 января, ср
ср2000:00−14˚юв11694 0.0 102221
03:00−14˚ююв127018 0.0 102321
06:00−14˚ююв116769 0.0 102421
09:00−12˚ююв227083 0.0 102523
12:00−7˚ссв226951 0.0 1024354
15:00−8˚с229248 0.0 1024278
18:00−11˚сз0198100 0.3 102722
21:00−12˚ю1194100 0.4 102921
21 января, чт
чт2100:00−13˚ю338049 0.0 103029
03:00−13˚ю336724 0.0 103125
06:00−12˚ю34641 0.0 103231
09:00−10˚ю34642 0.0 103345
12:00−4˚юз246252 0.0 1031531
15:00−4˚всв118026 0.0 103157
18:00−7˚ююв23610 0.0 103221
21:00−7˚ю34620 0.0 103328